IPM 3 & PERSEI DEB (50569 NORAD) Tracking and Keplerian Element Data

This shows tracking and keplerian element data for the satellite.

Feedback or suggestion? Click here.




ElementValue
Catalog50569
NameIPM 3 & PERSEI DEB
Epoch Orbit27
Epoch Day364.34696682
Epoch Year2021
RAAN335.3549
Inclination63.3853
Eccentricity0.000918
Argument of Perigee4.1526
Mean Anonmoly355.9725
Mean Motion16.51953951
Decay Rate0.34350554
L11 50569U 21133B 21364.34696682 .34350554 89354-5 27488-3 0 9990
L22 50569 63.3853 335.3549 0009180 4.1526 355.9725 16.51953951 273

Live tracking and technical data element details for IPM 3 & PERSEI DEB (NORAD 50569). IPM 3 & PERSEI DEB can be tracked NOW for your location showing map with azimuth and elevation plus other details from your city location.

Track the satellite on the map from your city or location and see movement details for azimuth, elevation, latitude, longitude, range, height, and movement on the map or in text.







IsCatalogInMostPopularTable: catalog: 50569, numindb: 21
Update: records affected: 1



GetName: 50569 IPM 3 & PERSEI DEB

Hit Count: updated at: Mon, 23 May 2022 21:50:28 GMT